Theta_e
327 320 314 306 298 295 291 293 296 299 300 304 305 304 304 310 307 303 328 335 346 345 350 353 356 355 353 355 355 356 355 354 354 353 353 352 349 347 346 346 348 350 346 347 347 346 346 345 344
320 319 307 299 294 290 290 294 295 298 300 301 304 305 306 308 319 323 328 328 346 346 349 352 353 355 354 352 352 353 353 353 354 352 353 352 352 350 347 345 345 346 346 346 349 348 347 345 344
319 309 302 294 289 289 290 294 296 298 298 302 303 307 309 310 316 319 323 338 346 346 348 348 350 352 351 353 352 353 352 352 353 352 352 352 352 352 350 349 347 349 349 349 348 348 349 347 343
311 304 300 293 290 291 293 295 296 297 299 299 299 300 305 313 314 318 321 335 342 343 345 347 350 352 351 351 350 350 349 351 350 350 351 350 351 351 352 351 350 348 348 348 346 349 348 348 345
304 300 293 291 291 293 295 296 295 296 296 297 299 298 299 311 312 315 316 318 326 330 333 337 342 346 349 350 351 351 350 349 349 348 349 350 350 349 349 350 349 350 348 345 345 347 348 348 346
298 297 290 289 290 293 296 296 295 296 296 298 298 298 300 306 306 308 312 315 319 322 322 325 328 333 338 342 345 345 346 347 345 343 344 346 347 348 349 349 349 349 348 347 344 345 348 348 346
296 292 289 288 290 291 295 297 296 296 296 297 299 296 300 305 306 308 308 314 315 316 317 317 317 320 324 330 336 339 340 338 337 336 332 330 331 340 345 347 348 349 347 346 345 345 349 348 346
297 295 290 291 289 292 296 297 298 297 296 300 300 296 297 304 306 307 308 310 310 312 313 314 315 315 317 320 325 332 333 331 329 329 327 326 327 329 332 338 343 347 347 346 345 345 347 347 346
298 290 287 290 290 293 296 296 298 299 297 297 299 299 302 304 305 305 305 306 307 308 308 310 312 315 315 316 319 323 325 327 326 325 325 326 326 325 324 325 336 340 345 346 346 345 345 345 343
293 289 290 293 295 294 296 297 296 295 294 295 297 300 302 303 302 303 302 302 303 304 306 308 309 312 314 315 319 318 319 321 321 323 324 325 324 321 321 322 324 335 339 342 346 346 344 341 343
295 290 294 296 297 299 296 295 297 295 293 296 296 298 300 300 302 302 302 301 302 304 306 307 308 311 313 315 319 318 318 318 317 316 319 322 322 319 318 318 320 323 327 338 340 340 343 341 339
291 294 296 298 298 297 295 296 295 295 297 298 299 299 298 298 300 301 302 304 305 305 307 309 309 312 313 314 317 316 317 317 317 317 317 316 319 319 317 315 315 318 321 325 327 337 337 339 339
292 294 296 297 295 295 295 294 294 295 298 299 298 297 297 299 299 301 304 305 306 307 308 310 312 313 313 314 317 319 320 320 319 319 317 317 316 317 318 316 316 315 317 319 320 324 330 335 339
294 295 294 296 296 296 295 295 294 296 296 296 295 295 297 298 299 300 303 305 305 306 308 310 313 314 314 315 316 318 319 318 320 320 318 316 317 316 316 317 316 316 316 318 319 319 321 325 330
295 292 293 293 294 294 293 290 290 295 296 294 294 294 297 299 299 299 300 301 305 305 308 311 313 315 315 314 315 317 317 316 317 317 315 316 317 319 317 315 315 315 315 316 318 318 319 320 321
288 288 286 292 292 293 293 289 293 294 294 294 293 293 296 298 298 299 300 301 305 308 310 312 312 312 314 314 314 313 314 315 315 316 317 317 318 318 317 316 317 317 317 316 318 318 317 318 319
283 283 285 286 291 291 291 288 292 293 293 291 291 293 296 297 299 299 300 302 304 309 310 312 312 311 312 311 312 313 313 315 316 317 317 318 319 318 318 317 318 318 318 317 316 317 317 316 317
282 283 283 283 288 288 287 287 290 292 291 291 291 294 296 297 298 299 300 301 302 307 310 311 312 312 312 313 313 314 314 315 317 318 319 318 319 318 317 318 317 317 317 317 316 315 317 316 316
284 283 283 285 288 287 286 286 289 291 290 291 293 295 296 298 299 299 300 300 301 302 306 309 311 311 312 312 312 312 313 315 316 318 317 317 318 318 318 318 317 317 316 315 315 315 315 315 317
285 283 283 286 287 287 286 286 289 292 292 293 294 295 296 297 299 300 300 300 300 300 303 306 308 310 310 312 313 313 314 315 315 316 317 317 317 318 317 317 317 316 315 315 315 315 313 314 316
284 283 283 284 285 286 284 286 287 291 294 293 293 295 296 296 297 299 300 301 302 302 303 304 306 308 310 311 313 313 313 314 313 313 315 316 316 316 317 316 316 315 315 315 314 315 313 312 315
283 285 285 283 284 282 284 282 285 286 289 291 292 293 294 292 294 295 295 299 302 303 304 305 306 308 310 311 311 310 310 309 311 311 313 313 314 315 316 316 315 315 315 314 314 315 315 314 311
284 286 284 285 282 282 283 282 285 284 285 288 292 292 291 292 292 293 293 295 297 297 300 304 305 307 308 309 309 309 308 309 310 310 310 311 312 313 313 315 315 314 315 315 315 314 314 313 312
287 285 284 282 282 279 281 281 284 283 284 287 291 290 291 291 291 292 294 295 295 297 298 301 302 301 303 304 305 306 306 306 307 307 307 309 310 311 312 312 313 314 314 314 314 314 313 312 312
286 282 278 277 277 278 281 279 284 286 287 290 288 290 291 291 292 293 293 294 295 296 297 298 299 299 299 300 301 301 302 303 303 304 305 305 307 308 309 310 311 312 314 313 314 313 312 311 310
284 283 278 273 274 276 280 279 285 286 287 288 290 291 291 292 292 292 293 294 294 295 296 296 297 297 298 298 299 299 300 300 301 302 302 303 304 305 307 308 310 311 312 313 313 312 311 311 311
284 281 284 278 276 275 279 282 286 286 285 287 290 291 291 291 292 292 293 294 294 294 295 295 296 297 297 298 298 298 299 299 299 300 301 301 302 302 304 305 306 308 309 311 312 311 311 310 311
285 285 279 279 272 274 277 278 282 282 283 285 288 289 290 290 292 292 292 293 294 294 295 296 296 296 296 298 298 298 298 298 299 299 299 299 300 301 302 302 303 305 306 308 309 310 310 309 309
282 281 280 280 279 275 272 278 284 285 285 284 287 289 290 289 290 291 291 292 293 294 295 295 295 296 296 297 297 297 298 298 298 297 298 298 299 299 300 301 301 302 303 305 307 308 309 308 308
283 282 282 278 275 276 274 276 286 284 285 286 287 289 290 289 289 290 291 291 292 293 293 294 294 295 296 296 296 297 297 297 296 296 297 298 297 298 298 299 299 301 302 303 304 305 306 307 307
Wind_Speed
6 5 2 5 4 4 2 2 1 2 1 1 3 2 2 3 3 1 5 8 8 2 1 2 4 4 5 6 4 5 6 7 9 10 10 10 10 10 11 11 11 9 10 10 10 9 9 9 8
3 1 5 3 5 3 1 3 2 1 3 4 2 2 3 3 2 5 4 11 7 2 2 2 5 6 6 5 6 6 6 8 9 10 10 11 11 12 11 12 12 12 10 10 10 11 9 10 10
1 4 4 5 3 3 2 1 1 2 4 3 3 4 2 2 3 5 5 9 3 2 2 3 6 7 7 6 7 7 8 9 9 10 10 10 12 12 13 13 12 11 10 7 7 7 11 10 10
3 4 4 5 2 1 2 1 2 2 3 7 2 3 1 1 4 5 10 7 6 4 5 6 7 7 7 7 8 9 10 10 11 10 11 11 12 12 14 14 13 12 10 9 8 9 13 11 11
4 3 5 4 0 1 1 1 3 1 1 3 4 1 1 2 7 5 8 7 6 6 5 6 9 10 9 10 11 10 10 11 11 11 12 11 12 12 11 13 13 12 11 11 11 9 14 14 12
5 3 5 1 1 0 1 2 2 1 1 3 2 2 2 3 9 11 10 8 5 6 6 5 7 8 8 8 8 9 9 10 7 4 10 12 13 13 13 11 12 13 13 13 12 11 14 15 15
7 4 4 3 1 2 2 3 1 0 2 1 1 2 2 3 6 10 11 8 6 6 6 6 6 6 7 7 7 6 6 4 3 1 3 10 14 11 13 15 15 14 14 14 13 11 12 16 15
5 5 3 2 2 2 1 3 2 0 2 5 2 2 2 3 11 9 7 7 7 7 6 8 7 7 7 6 8 7 5 4 3 3 4 6 10 16 19 18 17 16 14 14 13 12 10 15 14
2 5 2 4 5 2 1 3 1 1 2 3 2 2 2 7 7 7 7 7 9 8 8 8 9 8 7 5 4 6 6 4 5 4 5 5 3 7 12 18 16 12 16 15 14 13 11 8 11
5 4 6 2 3 2 0 1 2 2 3 2 3 3 4 5 6 7 7 8 8 11 13 9 8 7 5 2 2 3 3 3 3 4 3 3 5 4 6 9 20 14 12 14 18 14 11 9 7
1 3 3 1 2 1 1 2 1 0 2 4 3 6 8 4 6 5 6 4 5 7 6 9 8 6 4 1 0 1 2 2 3 4 3 2 3 4 2 3 7 8 12 4 6 4 6 7 6
4 2 2 1 2 1 1 2 2 4 5 5 3 4 5 7 7 6 7 7 9 9 9 11 8 4 3 1 2 2 1 2 3 3 5 2 1 2 2 4 6 7 6 5 9 2 3 6 9
3 1 0 1 4 4 1 4 4 8 8 6 3 4 4 4 6 3 4 3 6 7 9 10 6 4 2 3 3 4 3 0 1 1 4 2 1 2 2 4 4 7 5 5 2 1 5 2 0
2 1 3 1 2 1 1 2 1 3 2 5 4 6 3 4 4 3 5 6 7 8 8 8 7 4 2 2 2 1 2 3 0 1 1 4 1 2 3 1 2 4 5 5 6 5 4 4 3
2 3 2 2 3 0 3 1 6 3 0 5 6 5 4 5 3 3 4 5 6 6 7 9 8 5 4 4 3 2 1 2 1 2 3 3 2 0 4 3 1 1 3 5 5 4 4 3 3
4 5 3 0 5 2 3 6 3 3 1 6 6 4 4 5 3 4 5 5 5 6 8 7 7 6 4 2 2 2 2 2 2 2 3 4 2 3 4 3 2 2 1 2 3 3 3 3 2
6 2 2 6 2 4 2 6 3 2 3 7 3 2 3 5 4 5 6 5 6 5 7 8 8 7 4 4 3 2 3 1 1 1 1 3 2 3 3 2 3 3 2 2 3 3 3 3 3
1 2 2 4 3 5 6 12 10 10 4 4 2 1 5 5 4 7 6 6 5 5 5 5 5 6 5 3 2 1 1 1 2 2 1 3 3 4 4 3 1 3 2 2 2 4 3 2 4
5 3 2 4 2 5 4 7 8 6 4 5 3 3 4 4 5 4 5 5 7 5 6 5 5 5 4 3 2 1 1 2 2 3 3 3 4 4 1 2 1 2 3 3 3 3 4 3 1
3 2 4 5 1 2 4 8 4 3 2 2 3 3 4 4 6 7 8 7 7 5 6 5 5 4 3 1 1 1 2 2 3 4 5 4 3 3 3 2 3 3 3 3 4 3 3 2 3
1 3 2 5 5 2 6 2 1 1 2 3 3 2 3 4 6 7 8 6 6 7 7 6 6 5 3 3 1 1 0 0 2 2 4 5 5 4 4 4 3 4 3 3 3 3 2 3 3
2 2 1 5 3 3 5 5 3 1 1 2 2 4 5 5 4 4 7 6 7 7 6 5 5 5 3 4 2 2 1 2 1 3 3 6 9 9 6 5 5 5 3 4 4 4 3 3 5
3 2 3 1 2 2 4 2 4 2 4 3 3 4 5 5 5 7 7 7 6 7 6 5 5 6 6 5 3 2 3 3 3 3 5 5 5 6 8 7 6 6 4 5 5 5 4 3 4
2 2 2 3 2 3 3 2 4 3 4 3 2 4 5 6 6 6 5 5 6 7 8 8 8 9 9 8 7 7 7 7 6 6 5 4 4 4 5 6 6 7 7 7 6 6 6 5 5
2 4 4 6 5 3 2 1 7 2 1 3 4 4 4 4 4 5 7 7 7 8 8 6 8 9 9 9 9 9 8 7 8 8 6 8 6 5 6 5 6 6 7 8 7 7 7 7 6
3 2 6 4 2 5 3 6 4 2 3 4 5 4 3 4 3 4 4 5 5 6 7 8 9 8 9 9 9 8 8 5 5 6 7 7 6 7 9 8 7 8 8 8 8 7 7 7 7
1 4 2 6 2 1 3 6 4 3 3 2 5 6 5 4 2 3 3 3 4 5 7 7 7 7 8 8 7 8 8 8 7 9 6 4 6 7 9 9 9 9 9 9 9 8 10 9 8
1 5 3 3 0 5 5 5 5 6 8 6 3 4 4 4 3 1 3 4 3 3 4 5 6 6 6 7 8 8 9 9 9 8 9 10 9 9 9 9 9 9 10 9 9 9 10 10 9
2 1 5 3 3 4 3 7 5 4 8 10 5 2 3 5 5 1 2 3 3 3 4 5 6 7 7 8 9 9 8 9 8 7 9 9 9 10 11 11 10 9 9 9 10 11 11 12 12
1 3 4 4 4 2 0 9 1 5 4 8 5 3 5 5 4 2 1 3 4 4 5 5 6 6 6 7 8 8 8 8 9 9 9 10 11 10 11 11 11 11 11 9 10 12 11 13 13
Wind_Direction
340 349 44 42 61 61 64 43 289 4 68 31 283 38 91 68 47 33 340 359 351 280 171 232 238 251 226 223 235 226 216 211 210 209 206 192 191 184 179 175 174 174 171 180 173 169 159 155 151
344 347 46 77 83 69 349 313 62 348 301 294 152 72 64 76 18 331 359 348 356 39 9 293 282 263 262 256 259 260 245 232 228 232 224 219 203 198 192 188 185 180 194 195 172 175 174 166 162
131 34 76 83 92 125 137 315 283 327 347 22 84 49 46 18 337 331 339 327 353 34 333 284 287 297 292 292 282 264 261 252 243 243 246 230 232 213 210 200 194 192 185 195 188 220 176 174 169
34 18 51 75 86 157 146 285 339 306 341 33 359 72 358 345 319 339 312 323 327 348 340 328 297 280 285 282 281 278 274 271 262 255 252 248 239 236 225 215 205 191 193 188 202 172 176 176 175
36 53 62 82 165 155 206 341 305 44 72 355 347 43 6 16 335 353 340 337 332 326 330 330 334 344 339 330 320 289 267 268 275 283 277 264 256 244 232 229 217 198 191 204 204 199 188 175 179
44 86 60 127 246 212 231 348 277 47 23 328 35 345 241 127 19 335 334 335 333 315 321 324 329 337 337 338 337 354 350 299 269 13 337 301 298 269 261 237 216 210 208 211 215 207 196 187 179
106 78 166 158 228 290 205 332 117 125 300 132 269 301 302 272 356 329 322 321 329 318 310 310 305 314 323 338 338 341 350 18 1 348 57 13 354 344 319 264 237 218 216 213 211 209 210 194 186
100 91 118 210 173 221 218 332 176 55 291 306 199 222 313 330 338 335 336 334 334 335 325 320 313 313 311 322 346 354 7 19 15 25 29 16 356 1 356 326 255 228 214 211 205 205 205 196 192
116 69 170 206 161 170 345 29 37 350 299 325 261 202 314 329 331 355 355 344 343 341 334 332 319 311 316 325 356 20 14 12 358 1 30 35 16 6 354 335 302 303 223 207 202 198 198 204 195
78 112 205 170 166 173 76 178 314 354 352 298 315 283 321 336 3 360 353 341 333 328 329 335 328 310 313 315 19 49 45 22 356 343 9 66 65 56 38 331 337 313 270 236 202 191 190 189 199
134 140 155 80 203 137 148 287 187 132 286 229 264 296 324 334 343 349 344 332 314 318 313 335 325 313 280 245 158 40 85 57 31 18 10 86 98 89 57 45 7 331 328 291 204 186 191 182 191
97 77 139 141 59 52 266 316 272 188 232 151 247 279 314 328 330 341 351 346 351 348 341 336 338 311 269 146 114 103 88 108 106 68 48 66 355 47 21 38 232 8 302 299 12 217 163 217 189
86 126 8 18 298 254 347 255 242 243 252 271 295 316 298 297 304 326 354 354 342 355 339 341 340 2 14 139 151 165 192 153 79 121 102 51 201 192 159 107 31 248 323 332 341 349 57 82 26
153 26 299 355 314 268 254 238 114 249 115 148 351 345 329 318 312 334 7 347 353 337 347 339 12 22 68 189 189 60 22 348 72 77 52 131 150 118 107 58 143 3 334 325 332 349 16 39 36
83 40 32 51 346 291 229 176 227 249 243 300 339 333 340 312 306 17 325 308 325 330 322 6 356 7 31 58 54 51 305 299 10 65 346 13 75 30 74 68 26 106 315 325 319 333 359 21 17
51 54 47 48 348 354 40 279 252 182 128 299 326 333 329 330 335 355 344 324 332 345 360 359 8 1 30 47 355 331 337 344 26 20 26 296 244 237 90 89 43 29 324 310 315 338 336 350 357
13 128 349 327 48 333 73 274 292 159 282 290 317 317 347 4 24 1 341 341 346 351 357 9 14 23 20 53 52 45 60 29 325 32 11 288 11 72 88 100 90 335 286 345 327 312 318 319 321
179 59 301 255 349 13 280 261 282 295 250 237 180 35 31 20 354 325 331 351 353 2 360 12 24 24 34 53 94 89 52 330 334 350 34 16 343 12 36 42 55 263 304 357 345 305 301 298 310
104 85 305 266 280 333 244 289 308 344 95 119 103 67 38 23 329 341 345 351 1 11 355 7 3 13 21 9 7 20 349 323 338 295 321 327 323 330 107 152 289 311 329 334 324 301 313 309 317
86 86 270 279 229 255 316 300 297 13 82 126 114 70 43 12 3 1 4 10 9 343 349 349 358 354 9 12 347 350 356 333 318 319 314 315 301 292 286 294 255 301 301 307 317 323 325 315 317
132 179 244 249 319 285 301 332 354 52 109 77 42 43 38 9 350 351 354 358 355 0 351 342 342 344 350 6 333 332 322 263 305 326 313 315 313 289 271 274 288 295 265 301 291 287 260 309 305
315 182 280 280 336 298 359 279 278 298 283 103 39 36 21 10 1 350 358 352 352 341 336 343 353 346 353 355 356 348 308 300 245 296 291 305 310 308 299 277 258 264 257 256 265 253 221 254 286
252 15 232 186 95 25 19 55 269 2 222 187 53 34 22 13 3 2 358 357 0 356 355 353 4 23 5 359 352 334 306 279 289 280 286 291 291 288 299 292 267 253 251 252 249 258 270 248 268
286 165 70 63 81 46 347 89 281 198 222 145 61 40 21 15 19 21 15 16 14 6 23 26 35 30 23 22 13 360 339 330 325 328 319 312 300 291 272 274 272 271 265 254 247 245 244 243 257
11 45 341 357 8 228 340 9 256 306 46 135 103 54 34 33 38 25 21 18 18 19 17 24 28 27 18 23 26 18 10 357 343 335 326 321 320 312 307 293 277 260 253 251 248 243 243 246 250
37 105 144 240 274 289 318 238 254 224 86 87 76 67 51 51 41 38 24 21 21 18 21 21 20 19 14 18 12 11 10 5 356 347 337 329 320 311 306 300 290 277 261 250 242 241 241 241 244
153 56 161 105 66 357 256 283 288 159 107 80 54 55 20 13 70 70 42 42 22 23 21 18 10 8 10 7 4 5 2 1 349 341 337 332 322 325 321 312 299 285 273 260 246 239 237 238 235
107 151 70 19 8 274 276 270 246 196 193 191 131 67 350 318 178 46 20 8 3 7 4 13 10 7 352 355 357 353 347 347 345 342 342 339 331 328 325 319 310 303 290 270 254 249 240 236 234
85 85 51 111 164 202 283 256 215 228 203 185 186 189 302 290 226 171 331 329 342 349 6 354 1 356 353 347 341 339 334 335 336 339 337 333 327 331 328 325 317 308 297 286 270 254 247 240 238
89 170 148 134 245 241 247 271 350 273 229 174 210 262 308 292 205 205 275 332 348 353 353 345 342 345 336 330 329 327 325 328 328 328 326 326 326 324 322 320 317 313 307 295 276 269 258 244 241